Seldovia, AK

11:39 AM AKDT on April 27, 2017 (GMT -0800)
Seldovia

Weather History for PASO - November, 2012

Change the Weather History Date:

Thursday, November 1, 2012

  Actual Average (PAHO) Record (PAHO)
Temperature  
Mean Temperature 29 °F -  
Max Temperature 34 °F 38 °F 55 °F (1996)
Min Temperature 24 °F 27 °F 2 °F (1985)
Degree Days  
Heating Degree Days 36    
Moisture  
Dew Point 21 °F    
Average Humidity 73    
Maximum Humidity 91    
Minimum Humidity 54    
Precipitation  
Precipitation 0.03 in - - ()
Sea Level Pressure  
Sea Level Pressure 29.63 in    
Wind  
Wind Speed 4 mph (NNE)    
Max Wind Speed 13 mph    
Max Gust Speed 21 mph    
Visibility 7 miles    
Events Fog , Snow    
Averages and records for this station are not official NWS values.
T = Trace of Precipitation, MM = Missing Value Source: NWS Daily Summary

Daily Weather History Graph

Daily Weather History Graph

Search for Another Location

Airport or City:

Trip Planner

Search our weather history database for the weather conditions in past years. The results will help you decide how hot, cold, wet, or windy it might be!

Date:

Astronomy

Nov. 01, 2012 Rise Set
Actual Time 9:28 AM AKDT 6:11 PM AKDT
Civil Twilight 8:43 AM AKDT 6:55 PM AKDT
Nautical Twilight 7:55 AM AKDT 7:44 PM AKDT
Astronomical Twilight 7:07 AM AKDT 8:31 PM AKDT
Moon 7:40 PM AKDT (11/1) 12:45 PM AKDT (11/1)
Length of Visible Light 10h 11m
Length of Day
8h 42m
Waning Gibbous, 92% of the Moon is Illuminated
Nov 1
Waning Gibbous
Nov 6
Last Quarter
Nov 13
New
Nov 20
First Quarter
Nov 28
Full

Hourly Weather History & Observations

Time (AKDT) Temp. Windchill Dew Point Humidity Pressure Visibility Wind Dir Wind Speed Gust Speed Precip Events Conditions
12:14 AM 26.6 °F 18.2 °F 21.2 °F 80% 29.59 in 0.8 mi North 8.1 mph - 0.00 in Snow Light Snow
12:32 AM 24.8 °F - 21.2 °F 86% 29.60 in 0.5 mi Calm Calm - 0.02 in Fog , Snow Snow
12:43 AM 26.6 °F 21.2 °F 19.4 °F 74% 29.59 in 1.5 mi Variable 4.6 mph - 0.03 in Snow Light Snow
12:46 AM 26.6 °F 22.6 °F 19.4 °F 74% 29.59 in 2.0 mi Variable 3.5 mph - 0.03 in Snow Light Snow
12:53 AM 26.1 °F 21.9 °F 19.0 °F 75% 29.60 in 3.0 mi Variable 3.5 mph - 0.03 in Snow Light Snow
1:11 AM 26.6 °F - 19.4 °F 74% 29.60 in 9.0 mi Calm Calm - 0.00 in Snow Light Snow
1:46 AM 26.6 °F 20.0 °F 19.4 °F 74% 29.61 in 1.8 mi North 5.8 mph - 0.00 in Snow Light Snow
1:53 AM 26.1 °F 20.5 °F 19.0 °F 75% 29.61 in 2.0 mi North 4.6 mph - 0.00 in Snow Light Snow
1:59 AM 26.6 °F 22.6 °F 19.4 °F 74% 29.61 in 4.0 mi Variable 3.5 mph - 0.00 in Snow Light Snow
2:18 AM 26.6 °F 22.6 °F 19.4 °F 74% 29.60 in 5.0 mi Variable 3.5 mph - 0.00 in Snow Light Snow
2:53 AM 27.0 °F 20.5 °F 18.0 °F 69% 29.61 in 10.0 mi NE 5.8 mph - 0.00 in   Overcast
3:53 AM 27.0 °F 20.5 °F 19.0 °F 72% 29.62 in 10.0 mi North 5.8 mph - N/A   Overcast
4:53 AM 28.0 °F - 18.0 °F 66% 29.63 in 7.0 mi Calm Calm - 0.00 in Snow Light Snow
5:07 AM 26.6 °F - 19.4 °F 74% 29.63 in 3.0 mi Calm Calm - 0.00 in Snow Light Snow
5:50 AM 28.4 °F 24.6 °F 21.2 °F 74% 29.64 in 9.0 mi Variable 3.5 mph - 0.00 in   Overcast
5:53 AM 28.0 °F - 21.0 °F 75% 29.64 in 9.0 mi Calm Calm - 0.00 in   Overcast
6:27 AM 28.4 °F 24.6 °F 21.2 °F 74% 29.64 in 2.5 mi Variable 3.5 mph - 0.00 in Snow Light Snow
6:36 AM 26.6 °F 22.6 °F 21.2 °F 80% 29.64 in 5.0 mi South 3.5 mph - 0.00 in Snow Light Snow
6:53 AM 26.1 °F - 23.0 °F 88% 29.65 in 10.0 mi Calm Calm - 0.00 in   Overcast
7:20 AM 26.6 °F - 23.0 °F 86% 29.65 in 2.5 mi Calm Calm - 0.00 in Snow Light Snow
7:30 AM 26.6 °F - 23.0 °F 86% 29.65 in 2.0 mi Calm Calm - 0.00 in Snow Light Snow
7:41 AM 24.8 °F 20.5 °F 21.2 °F 86% 29.66 in 8.0 mi South 3.5 mph - 0.00 in Snow Light Snow
7:48 AM 24.8 °F - 21.2 °F 86% 29.66 in 9.0 mi Calm Calm - 0.00 in   Mostly Cloudy
7:53 AM 26.1 °F - 23.0 °F 88% 29.66 in 10.0 mi Calm Calm - 0.00 in   Mostly Cloudy
8:53 AM 24.1 °F - 21.9 °F 91% 29.68 in 10.0 mi Calm Calm - N/A   Overcast
9:53 AM 26.1 °F - 23.0 °F 88% 29.70 in 9.0 mi Calm Calm - N/A   Overcast
10:53 AM 28.0 °F - 24.1 °F 85% 29.70 in 10.0 mi Calm Calm - N/A   Overcast
11:53 AM 32.0 °F 24.8 °F 21.9 °F 66% 29.71 in 10.0 mi North 8.1 mph - N/A   Overcast
12:53 PM 33.1 °F 26.1 °F 21.9 °F 64% 29.70 in 10.0 mi North 8.1 mph - N/A   Overcast
1:53 PM 33.1 °F 26.9 °F 21.0 °F 61% 29.69 in 10.0 mi North 6.9 mph - N/A   Mostly Cloudy
2:53 PM 34.0 °F 27.2 °F 21.0 °F 59% 29.69 in 10.0 mi North 8.1 mph - N/A   Partly Cloudy
3:53 PM 34.0 °F 27.2 °F 21.0 °F 59% 29.68 in 10.0 mi North 8.1 mph - N/A   Scattered Clouds
4:53 PM 34.0 °F 26.6 °F 21.0 °F 59% 29.66 in 10.0 mi North 9.2 mph 16.1 mph N/A   Partly Cloudy
5:53 PM 33.1 °F 24.9 °F 21.0 °F 61% 29.65 in 10.0 mi North 10.4 mph 19.6 mph N/A   Partly Cloudy
6:53 PM 33.1 °F 23.9 °F 21.0 °F 61% 29.64 in 10.0 mi NNE 12.7 mph 20.7 mph N/A   Overcast
7:53 PM 32.0 °F 22.5 °F 19.9 °F 61% 29.62 in 10.0 mi NNE 12.7 mph 20.7 mph N/A   Overcast
8:53 PM 32.0 °F 26.4 °F 19.9 °F 61% 29.61 in 10.0 mi North 5.8 mph - N/A   Overcast
9:53 PM 32.0 °F 23.6 °F 19.0 °F 59% 29.59 in 10.0 mi NNE 10.4 mph 17.3 mph N/A   Overcast
10:53 PM 32.0 °F 25.6 °F 17.1 °F 54% 29.56 in 10.0 mi North 6.9 mph - N/A   Overcast
11:53 PM 32.0 °F 24.8 °F 18.0 °F 56% 29.52 in 10.0 mi NNE 8.1 mph - N/A   Scattered Clouds